• In Romania
  • List of Countries
  • For 7 days
  • Water Temperature
  • Satellite Maps
  • Weather Map
  • Weather Widgets
  • user-avatar
    Login

    Hourly Weather Mayrhofen

    Today, 18 November, Saturday

    Time Temperature Precipitation Wind Pressure Humidity
    00:00 -6°C° 0 mm 1 mps 616 mmHg 92%
    01:00 -6°C° 0 mm 1 mps 616 mmHg 92%
    02:00 -7°C° 0 mm 1 mps 616 mmHg 92%
    03:00 -7°C° 0 mm 1 mps 615 mmHg 92%
    04:00 -7°C° 0 mm 1 mps 615 mmHg 92%
    05:00 -7°C° 0 mm 1 mps 615 mmHg 92%
    06:00 -7°C° 0 mm 1 mps 615 mmHg 92%
    07:00 -7°C° 0 mm 1 mps 615 mmHg 92%
    08:00 -6°C° 0 mm 1 mps 615 mmHg 89%
    09:00 -3°C° 0 mm 1 mps 616 mmHg 86%
    10:00 -1°C° 0 mm 1 mps 617 mmHg 83%
    11:00 -1°C° 0 mm 1 mps 617 mmHg 81%
    12:00 0°C° 0 mm 1 mps 617 mmHg 78%
    13:00 +1°C° 0 mm 1 mps 616 mmHg 75%
    14:00 0°C° 0 mm 1 mps 616 mmHg 79%
    15:00 -1°C° 0 mm 1 mps 615 mmHg 83%
    16:00 -2°C° 0 mm 1 mps 614 mmHg 87%
    17:00 -4°C° 0 mm 1 mps 614 mmHg 88%
    18:00 -7°C° 0 mm 2 mps 614 mmHg 88%
    19:00 -8°C° 0 mm 2 mps 614 mmHg 89%
    20:00 -8°C° 0 mm 2 mps 614 mmHg 86%
    21:00 -9°C° 0 mm 2 mps 614 mmHg 82%
    22:00 -9°C° 0 mm 2 mps 614 mmHg 79%
    23:00 -9°C° 0 mm 2 mps 614 mmHg 78%

    Tomorrow, 19 November, Sunday

    Time Temperature Precipitation Wind Pressure Humidity
    00:00 -8°C° 0 mm 2 mps 614 mmHg 76%
    01:00 -8°C° 0 mm 2 mps 613 mmHg 75%
    02:00 -8°C° 0.1 mm 2 mps 613 mmHg 74%
    03:00 -7°C° 0.1 mm 2 mps 613 mmHg 74%
    04:00 -6°C° 0.1 mm 1 mps 613 mmHg 74%
    05:00 -6°C° 0.6 mm 2 mps 613 mmHg 79%
    06:00 -6°C° 0.6 mm 2 mps 612 mmHg 83%
    07:00 -6°C° 0.6 mm 2 mps 612 mmHg 88%
    08:00 -5°C° 0.4 mm 2 mps 613 mmHg 88%
    09:00 -5°C° 0.4 mm 2 mps 613 mmHg 88%
    10:00 -4°C° 0.4 mm 2 mps 614 mmHg 88%
    11:00 -5°C° 0.4 mm 3 mps 614 mmHg 86%
    12:00 -5°C° 0.4 mm 3 mps 614 mmHg 84%
    13:00 -4°C° 0.4 mm 3 mps 613 mmHg 82%
    14:00 -5°C° 0.4 mm 3 mps 613 mmHg 84%
    15:00 -6°C° 0.4 mm 3 mps 613 mmHg 86%
    16:00 -5°C° 0.4 mm 2 mps 613 mmHg 88%
    17:00 -6°C° 0.4 mm 2 mps 614 mmHg 90%
    18:00 -6°C° 0.4 mm 2 mps 614 mmHg 91%
    19:00 -7°C° 0.4 mm 2 mps 614 mmHg 92%
    20:00 -7°C° 0.2 mm 2 mps 615 mmHg 92%
    21:00 -7°C° 0.2 mm 2 mps 615 mmHg 92%
    22:00 -8°C° 0.2 mm 2 mps 615 mmHg 93%
    23:00 -8°C° 0.1 mm 2 mps 615 mmHg 93%

    Day after tomorrow, 20 November, Monday

    Time Temperature Precipitation Wind Pressure Humidity
    00:00 -8°C° 0.1 mm 2 mps 615 mmHg 92%
    01:00 -9°C° 0.1 mm 2 mps 615 mmHg 92%
    02:00 -9°C° 0 mm 2 mps 615 mmHg 92%
    03:00 -10°C° 0 mm 2 mps 615 mmHg 91%
    04:00 -12°C° 0 mm 2 mps 615 mmHg 91%
    05:00 -12°C° 0 mm 2 mps 615 mmHg 88%
    06:00 -12°C° 0 mm 2 mps 615 mmHg 86%
    07:00 -12°C° 0 mm 2 mps 615 mmHg 83%
    08:00 -9°C° 0 mm 2 mps 616 mmHg 79%
    09:00 -6°C° 0 mm 2 mps 617 mmHg 75%
    10:00 -2°C° 0 mm 1 mps 617 mmHg 71%
    11:00 -1°C° 0 mm 1 mps 617 mmHg 70%
    12:00 0°C° 0 mm 1 mps 617 mmHg 69%
    13:00 +1°C° 0 mm 1 mps 617 mmHg 68%
    14:00 +1°C° 0.1 mm 1 mps 617 mmHg 72%
    15:00 0°C° 0.1 mm 1 mps 617 mmHg 77%
    16:00 -1°C° 0.1 mm 1 mps 616 mmHg 81%
    17:00 -3°C° 0.1 mm 2 mps 616 mmHg 83%
    18:00 -4°C° 0.1 mm 2 mps 616 mmHg 84%
    19:00 -4°C° 0.1 mm 2 mps 616 mmHg 86%
    20:00 -5°C° 0 mm 2 mps 616 mmHg 85%
    21:00 -5°C° 0 mm 2 mps 615 mmHg 85%
    22:00 -5°C° 0 mm 2 mps 615 mmHg 85%
    23:00 -5°C° 0 mm 2 mps 615 mmHg 84%

    21 November, Tuesday

    Time Temperature Precipitation Wind Pressure Humidity
    00:00 -5°C° 0 mm 2 mps 615 mmHg 84%
    01:00 -5°C° 0 mm 2 mps 615 mmHg 83%
    02:00 -4°C° 0.4 mm 2 mps 615 mmHg 84%
    03:00 -4°C° 0.4 mm 2 mps 615 mmHg 86%
    04:00 -3°C° 0.4 mm 2 mps 615 mmHg 87%
    05:00 -3°C° 0.3 mm 2 mps 615 mmHg 88%
    06:00 -3°C° 0.3 mm 2 mps 615 mmHg 89%
    07:00 -3°C° 0.3 mm 2 mps 616 mmHg 90%
    08:00 -2°C° 0.2 mm 2 mps 616 mmHg 89%
    09:00 -1°C° 0.2 mm 2 mps 616 mmHg 88%
    10:00 +1°C° 0.2 mm 2 mps 617 mmHg 87%
    11:00 +1°C° 0.1 mm 2 mps 617 mmHg 88%
    12:00 +2°C° 0.1 mm 2 mps 617 mmHg 89%
    13:00 +3°C° 0.1 mm 2 mps 617 mmHg 90%
    14:00 +3°C° 0 mm 1 mps 617 mmHg 90%
    15:00 +2°C° 0 mm 1 mps 616 mmHg 89%
    16:00 +2°C° 0 mm 1 mps 616 mmHg 89%
    17:00 +1°C° 0 mm 1 mps 616 mmHg 88%
    18:00 0°C° 0 mm 1 mps 616 mmHg 87%
    19:00 -1°C° 0 mm 1 mps 616 mmHg 86%
    20:00 -1°C° 0 mm 1 mps 616 mmHg 85%
    21:00 -1°C° 0 mm 1 mps 616 mmHg 83%
    22:00 -1°C° 0 mm 1 mps 616 mmHg 82%
    23:00 -1°C° 0 mm 1 mps 616 mmHg 80%

    22 November, Wednesday

    Time Temperature Precipitation Wind Pressure Humidity
    00:00 -1°C° 0 mm 1 mps 616 mmHg 78%
    01:00 -3°C° 0 mm 2 mps 616 mmHg 77%
    02:00 -3°C° 0 mm 2 mps 616 mmHg 76%
    03:00 -3°C° 0 mm 2 mps 615 mmHg 75%
    04:00 -3°C° 0 mm 2 mps 615 mmHg 74%
    05:00 -4°C° 0 mm 2 mps 615 mmHg 74%
    06:00 -4°C° 0 mm 2 mps 615 mmHg 73%
    07:00 -4°C° 0 mm 2 mps 615 mmHg 73%
    08:00 -2°C° 0 mm 2 mps 616 mmHg 74%
    09:00 -1°C° 0 mm 2 mps 617 mmHg 75%
    10:00 +3°C° 0 mm 1 mps 617 mmHg 76%
    11:00 +4°C° 0 mm 1 mps 617 mmHg 80%
    12:00 +5°C° 0 mm 1 mps 617 mmHg 83%
    13:00 +6°C° 0 mm 1 mps 617 mmHg 86%
    14:00 +4°C° 0 mm 1 mps 617 mmHg 83%
    15:00 +2°C° 0 mm 2 mps 616 mmHg 81%
    16:00 +1°C° 0 mm 2 mps 616 mmHg 78%
    17:00 -1°C° 0 mm 2 mps 616 mmHg 77%
    18:00 -2°C° 0 mm 2 mps 616 mmHg 77%
    19:00 -3°C° 0 mm 2 mps 615 mmHg 76%
    20:00 -3°C° 0 mm 2 mps 616 mmHg 77%
    21:00 -3°C° 0 mm 2 mps 616 mmHg 77%
    22:00 -3°C° 0 mm 2 mps 616 mmHg 77%
    23:00 -4°C° 0 mm 3 mps 615 mmHg 78%

    23 November, Thursday

    Time Temperature Precipitation Wind Pressure Humidity
    00:00 -4°C° 0 mm 3 mps 615 mmHg 78%
    01:00 -4°C° 0 mm 3 mps 615 mmHg 79%
    02:00 -5°C° 0 mm 3 mps 615 mmHg 79%
    03:00 -5°C° 0 mm 3 mps 615 mmHg 79%
    04:00 -5°C° 0 mm 3 mps 615 mmHg 79%
    05:00 -5°C° 0 mm 3 mps 615 mmHg 79%
    06:00 -5°C° 0 mm 3 mps 615 mmHg 79%
    07:00 -5°C° 0 mm 3 mps 615 mmHg 80%
    08:00 -4°C° 0 mm 3 mps 615 mmHg 80%
    09:00 -1°C° 0 mm 3 mps 616 mmHg 80%
    10:00 0°C° 0 mm 3 mps 616 mmHg 80%
    11:00 +1°C° 0 mm 3 mps 617 mmHg 81%
    12:00 +2°C° 0 mm 3 mps 617 mmHg 83%
    13:00 +3°C° 0 mm 3 mps 617 mmHg 84%
    14:00 +3°C° 0 mm 2 mps 617 mmHg 85%
    15:00 +2°C° 0 mm 2 mps 616 mmHg 86%
    16:00 +1°C° 0 mm 2 mps 616 mmHg 87%
    17:00 -1°C° 0 mm 2 mps 616 mmHg 87%
    18:00 -2°C° 0 mm 2 mps 616 mmHg 87%
    19:00 -2°C° 0 mm 2 mps 616 mmHg 87%
    20:00 -2°C° 0 mm 2 mps 617 mmHg 86%
    21:00 -2°C° 0 mm 2 mps 617 mmHg 86%
    22:00 -2°C° 0 mm 2 mps 617 mmHg 85%
    23:00 -3°C° 0 mm 2 mps 617 mmHg 84%
    Show more